Time,TemperatureF,DewpointF,PressureIn,WindDirection,WindDirectionDegrees,WindSpeedMPH,WindSpeedGustMPH,Humidity,HourlyPrecipIn,Conditions,Clouds,dailyrainin,SoftwareType,DateUTC
2013-03-04 00:01:00,26.0,15.5,31.05,WNW,290,0.0,0.0,64,0.00,,---,0.00,VWS V14.01,2013-03-04 08:01:00,
2013-03-04 00:06:00,26.0,15.9,31.07,WNW,294,0.0,0.0,65,0.00,,---,0.00,VWS V14.01,2013-03-04 08:06:00,
2013-03-04 00:11:00,26.0,15.5,31.07,WNW,292,0.0,0.0,64,0.00,,---,0.00,VWS V14.01,2013-03-04 08:11:00,
2013-03-04 00:16:00,26.0,15.5,31.07,WNW,296,0.0,0.0,64,0.00,,---,0.00,VWS V14.01,2013-03-04 08:16:00,
2013-03-04 00:21:00,26.0,15.5,31.07,NW,304,0.0,0.0,64,0.00,,---,0.00,VWS V14.01,2013-03-04 08:21:00,
2013-03-04 00:26:00,26.1,15.2,31.07,WNW,300,0.0,0.0,63,0.00,,---,0.00,VWS V14.01,2013-03-04 08:26:00,
2013-03-04 00:31:00,26.1,15.2,31.07,WNW,292,0.0,0.0,63,0.00,,---,0.00,VWS V14.01,2013-03-04 08:31:00,
2013-03-04 00:36:00,26.1,14.9,31.07,WNW,302,0.0,0.0,62,0.00,,---,0.00,VWS V14.01,2013-03-04 08:36:00,
2013-03-04 00:41:00,26.1,14.9,31.07,WNW,294,0.0,0.0,62,0.00,,---,0.00,VWS V14.01,2013-03-04 08:41:00,
2013-03-04 00:46:00,26.1,14.9,31.07,NW,306,0.0,0.0,62,0.00,,---,0.00,VWS V14.01,2013-03-04 08:46:00,
2013-03-04 00:52:00,26.1,14.9,31.07,NW,316,0.0,0.0,62,0.00,,---,0.00,VWS V14.01,2013-03-04 08:52:00,
2013-03-04 00:57:00,26.1,14.9,31.07,WNW,301,0.0,0.0,62,0.00,,---,0.00,VWS V14.01,2013-03-04 08:57:00,
2013-03-04 01:02:00,26.1,14.9,31.07,NW,323,0.0,0.0,62,0.00,,---,0.00,VWS V14.01,2013-03-04 09:02:00,
2013-03-04 01:07:00,26.1,14.9,31.07,NW,313,0.0,0.0,62,0.00,,---,0.00,VWS V14.01,2013-03-04 09:07:00,
2013-03-04 01:12:00,26.3,15.1,31.07,NW,309,0.0,0.0,62,0.00,,---,0.00,VWS V14.01,2013-03-04 09:12:00,
2013-03-04 01:17:00,26.1,14.5,31.07,NW,317,0.0,0.0,61,0.00,,---,0.00,VWS V14.01,2013-03-04 09:17:00,
2013-03-04 01:22:00,26.1,14.5,31.07,NW,316,0.0,0.0,61,0.00,,---,0.00,VWS V14.01,2013-03-04 09:22:00,
2013-03-04 01:27:00,26.1,14.5,31.07,NW,325,0.0,0.0,61,0.00,,---,0.00,VWS V14.01,2013-03-04 09:27:00,
2013-03-04 01:33:00,26.0,14.8,31.07,NW,317,0.0,0.0,62,0.00,,---,0.00,VWS V14.01,2013-03-04 09:33:00,
2013-03-04 01:38:00,25.8,14.6,31.07,NNW,328,0.0,0.0,62,0.00,,---,0.00,VWS V14.01,2013-03-04 09:38:00,
2013-03-04 01:43:00,25.8,14.6,31.07,NNW,332,0.0,0.0,62,0.00,,---,0.00,VWS V14.01,2013-03-04 09:43:00,
2013-03-04 01:48:00,25.8,15.0,31.07,NNW,340,0.0,0.0,63,0.00,,---,0.00,VWS V14.01,2013-03-04 09:48:00,
2013-03-04 01:53:00,25.8,15.0,31.07,NNW,340,0.0,0.0,63,0.00,,---,0.00,VWS V14.01,2013-03-04 09:53:00,
2013-03-04 01:58:00,26.0,15.1,31.07,NNW,338,0.0,0.0,63,0.00,,---,0.00,VWS V14.01,2013-03-04 09:58:00,
2013-03-04 02:03:00,26.0,14.8,31.07,NNW,341,0.0,0.0,62,0.00,,---,0.00,VWS V14.01,2013-03-04 10:03:00,
2013-03-04 02:08:00,26.0,14.8,31.07,NNW,342,0.0,0.0,62,0.00,,---,0.00,VWS V14.01,2013-03-04 10:08:00,
2013-03-04 02:13:00,25.8,14.6,31.07,NNW,342,0.0,0.0,62,0.00,,---,0.00,VWS V14.01,2013-03-04 10:13:00,
2013-03-04 02:18:00,25.7,14.9,31.07,NNW,342,0.0,0.0,63,0.00,,---,0.00,VWS V14.01,2013-03-04 10:18:00,
2013-03-04 02:24:00,25.7,14.9,31.07,NNW,343,0.0,0.0,63,0.00,,---,0.00,VWS V14.01,2013-03-04 10:24:00,
2013-03-04 02:29:00,25.7,14.9,31.07,NNW,342,0.0,0.0,63,0.00,,---,0.00,VWS V14.01,2013-03-04 10:29:00,
2013-03-04 02:34:00,25.7,14.9,31.07,NNW,342,0.0,0.0,63,0.00,,---,0.00,VWS V14.01,2013-03-04 10:34:00,
2013-03-04 02:39:00,25.6,14.8,31.07,NNW,342,0.0,0.0,63,0.00,,---,0.00,VWS V14.01,2013-03-04 10:39:00,
2013-03-04 02:44:00,25.4,14.6,31.07,NNW,342,0.0,0.0,63,0.00,,---,0.00,VWS V14.01,2013-03-04 10:44:00,
2013-03-04 02:49:00,25.4,14.6,31.07,NNW,342,0.0,0.0,63,0.00,,---,0.00,VWS V14.01,2013-03-04 10:49:00,
2013-03-04 02:54:00,25.4,14.9,31.07,NNW,342,0.0,0.0,64,0.00,,---,0.00,VWS V14.01,2013-03-04 10:54:00,
2013-03-04 02:59:00,25.4,14.9,31.07,NNW,342,0.0,0.0,64,0.00,,---,0.00,VWS V14.01,2013-03-04 10:59:00,
2013-03-04 03:04:00,25.4,14.9,31.07,NNW,342,0.0,0.0,64,0.00,,---,0.00,VWS V14.01,2013-03-04 11:04:00,
2013-03-04 03:09:00,25.4,14.6,31.07,NNW,342,0.0,0.0,63,0.00,,---,0.00,VWS V14.01,2013-03-04 11:09:00,
2013-03-04 03:14:00,25.6,14.8,31.07,NNW,342,0.0,0.0,63,0.00,,---,0.00,VWS V14.01,2013-03-04 11:14:00,
2013-03-04 03:20:00,25.0,14.6,31.07,NNW,342,0.0,0.0,64,0.00,,---,0.00,VWS V14.01,2013-03-04 11:20:00,
2013-03-04 03:25:00,24.5,14.4,31.07,NNW,342,0.0,0.0,65,0.00,,---,0.00,VWS V14.01,2013-03-04 11:25:00,
2013-03-04 03:30:00,24.7,14.6,31.07,NNW,342,0.0,0.0,65,0.00,,---,0.00,VWS V14.01,2013-03-04 11:30:00,
2013-03-04 03:35:00,25.0,14.9,31.07,NNW,342,0.0,0.0,65,0.00,,---,0.00,VWS V14.01,2013-03-04 11:35:00,
2013-03-04 03:40:00,24.5,14.4,31.07,NNW,342,0.0,0.0,65,0.00,,---,0.00,VWS V14.01,2013-03-04 11:40:00,
2013-03-04 03:45:00,24.5,14.4,31.05,NNW,342,0.0,0.0,65,0.00,,---,0.00,VWS V14.01,2013-03-04 11:45:00,
2013-03-04 03:50:00,25.0,14.9,31.07,NNW,342,0.0,0.0,65,0.00,,---,0.00,VWS V14.01,2013-03-04 11:50:00,
2013-03-04 03:55:00,25.3,14.8,31.07,NNW,342,0.0,0.0,64,0.00,,---,0.00,VWS V14.01,2013-03-04 11:55:00,
2013-03-04 04:00:00,25.4,14.9,31.07,NNW,342,0.0,0.0,64,0.00,,---,0.00,VWS V14.01,2013-03-04 12:00:00,
2013-03-04 04:05:00,25.4,14.9,31.07,NNW,342,0.0,0.0,64,0.00,,---,0.00,VWS V14.01,2013-03-04 12:05:00,
2013-03-04 04:11:00,25.3,14.8,31.07,NNW,342,0.0,0.0,64,0.00,,---,0.00,VWS V14.01,2013-03-04 12:11:00,
2013-03-04 04:16:00,24.7,14.6,31.07,NNW,342,0.0,0.0,65,0.00,,---,0.00,VWS V14.01,2013-03-04 12:16:00,
2013-03-04 04:21:00,24.5,14.4,31.07,NNW,342,0.0,0.0,65,0.00,,---,0.00,VWS V14.01,2013-03-04 12:21:00,
2013-03-04 04:26:00,24.4,14.7,31.05,NNW,342,0.0,0.0,66,0.00,,---,0.00,VWS V14.01,2013-03-04 12:26:00,
2013-03-04 04:31:00,24.4,14.7,31.05,NNW,342,0.0,0.0,66,0.00,,---,0.00,VWS V14.01,2013-03-04 12:31:00,
2013-03-04 04:36:00,24.1,14.7,31.05,NNW,342,0.0,0.0,67,0.00,,---,0.00,VWS V14.01,2013-03-04 12:36:00,
2013-03-04 04:41:00,24.1,14.7,31.05,NNW,342,0.0,0.0,67,0.00,,---,0.00,VWS V14.01,2013-03-04 12:41:00,
2013-03-04 04:46:00,24.1,14.4,31.05,NNW,342,0.0,0.0,66,0.00,,---,0.00,VWS V14.01,2013-03-04 12:46:00,
2013-03-04 04:51:00,24.1,14.4,31.05,NNW,342,0.0,0.0,66,0.00,,---,0.00,VWS V14.01,2013-03-04 12:51:00,
2013-03-04 04:56:00,24.1,14.4,31.05,WNW,283,0.0,0.0,66,0.00,,---,0.00,VWS V14.01,2013-03-04 12:56:00,
2013-03-04 05:01:00,24.1,14.4,31.05,SSW,211,0.0,0.0,66,0.00,,---,0.00,VWS V14.01,2013-03-04 13:01:00,
2013-03-04 05:07:00,24.1,14.1,31.04,SSW,192,0.0,0.0,65,0.00,,---,0.00,VWS V14.01,2013-03-04 13:07:00,
2013-03-04 05:12:00,23.9,13.9,31.04,SSW,192,0.0,0.0,65,0.00,,---,0.00,VWS V14.01,2013-03-04 13:12:00,
2013-03-04 05:17:00,23.9,14.2,31.04,SSW,192,0.0,0.0,66,0.00,,---,0.00,VWS V14.01,2013-03-04 13:17:00,
2013-03-04 05:22:00,23.9,14.2,31.04,SSW,192,0.0,0.0,66,0.00,,---,0.00,VWS V14.01,2013-03-04 13:22:00,
2013-03-04 05:27:00,23.8,14.1,31.04,South,189,0.0,0.0,66,0.00,,---,0.00,VWS V14.01,2013-03-04 13:27:00,
2013-03-04 05:32:00,23.8,14.5,31.04,SSE,163,0.0,0.0,67,0.00,,---,0.00,VWS V14.01,2013-03-04 13:32:00,
2013-03-04 05:37:00,23.6,13.9,31.04,SSE,161,0.0,0.0,66,0.00,,---,0.00,VWS V14.01,2013-03-04 13:37:00,
2013-03-04 05:42:00,23.6,14.3,31.04,SE,131,0.0,0.0,67,0.00,,---,0.00,VWS V14.01,2013-03-04 13:42:00,
2013-03-04 05:47:00,23.6,14.3,31.04,SE,129,0.0,0.0,67,0.00,,---,0.00,VWS V14.01,2013-03-04 13:47:00,
2013-03-04 05:52:00,23.6,14.3,31.04,SE,128,0.0,0.0,67,0.00,,---,0.00,VWS V14.01,2013-03-04 13:52:00,
2013-03-04 05:57:00,23.6,14.6,31.04,ESE,121,0.0,0.0,68,0.00,,---,0.00,VWS V14.01,2013-03-04 13:57:00,
2013-03-04 06:02:00,23.6,14.6,31.04,ESE,114,0.0,0.0,68,0.00,,---,0.00,VWS V14.01,2013-03-04 14:02:00,
2013-03-04 06:07:00,23.6,14.6,31.03,ESE,105,0.0,0.0,68,0.00,,---,0.00,VWS V14.01,2013-03-04 14:07:00,
2013-03-04 06:12:00,23.6,14.6,31.03,East,97,0.0,0.0,68,0.00,,---,0.00,VWS V14.01,2013-03-04 14:12:00,
2013-03-04 06:18:00,23.6,14.6,31.03,ESE,110,0.0,0.0,68,0.00,,---,0.00,VWS V14.01,2013-03-04 14:18:00,
2013-03-04 06:23:00,23.5,14.8,31.42,East,94,0.0,0.0,69,0.00,,---,0.00,VWS V14.01,2013-03-04 14:23:00,
2013-03-04 06:28:00,23.3,14.3,31.41,East,95,0.0,0.0,68,0.00,,---,0.00,VWS V14.01,2013-03-04 14:28:00,
2013-03-04 06:33:00,23.2,14.2,31.02,ESE,122,0.0,0.0,68,0.00,,---,0.00,VWS V14.01,2013-03-04 14:33:00,
2013-03-04 06:38:00,23.0,14.0,31.02,ESE,111,0.0,0.0,68,0.00,,---,0.00,VWS V14.01,2013-03-04 14:38:00,
2013-03-04 06:43:00,23.0,14.0,31.02,ESE,105,0.0,0.0,68,0.00,,---,0.00,VWS V14.01,2013-03-04 14:43:00,
2013-03-04 06:48:00,23.0,13.7,31.02,ESE,119,0.0,0.0,67,0.00,,---,0.00,VWS V14.01,2013-03-04 14:48:00,
2013-03-04 06:53:00,23.2,13.9,31.02,East,94,0.0,0.0,67,0.00,,---,0.00,VWS V14.01,2013-03-04 14:53:00,
2013-03-04 06:58:00,23.2,13.2,31.02,SE,126,0.0,0.0,65,0.00,,---,0.00,VWS V14.01,2013-03-04 14:58:00,
2013-03-04 07:03:00,23.3,12.9,31.02,ESE,121,0.0,0.0,64,0.00,,---,0.00,VWS V14.01,2013-03-04 15:03:00,
2013-03-04 07:08:00,23.6,12.9,31.02,SE,126,0.0,0.0,63,0.00,,---,0.00,VWS V14.01,2013-03-04 15:08:00,
2013-03-04 07:13:00,23.6,13.2,31.02,SE,140,0.0,0.0,64,0.00,,---,0.00,VWS V14.01,2013-03-04 15:13:00,
2013-03-04 07:18:00,23.8,13.4,31.02,SSE,150,0.0,0.0,64,0.00,,---,0.00,VWS V14.01,2013-03-04 15:18:00,
2013-03-04 07:24:00,23.8,13.1,31.02,ESE,117,0.0,0.0,63,0.00,,---,0.00,VWS V14.01,2013-03-04 15:24:00,
2013-03-04 07:29:00,23.8,12.7,31.02,SE,126,0.0,0.0,62,0.00,,---,0.00,VWS V14.01,2013-03-04 15:29:00,
2013-03-04 07:34:00,23.6,12.5,31.02,SE,133,0.0,0.0,62,0.00,,---,0.00,VWS V14.01,2013-03-04 15:34:00,
2013-03-04 07:39:00,23.6,13.2,31.02,SSE,160,0.0,0.0,64,0.00,,---,0.00,VWS V14.01,2013-03-04 15:39:00,
2013-03-04 07:44:00,23.6,12.9,31.02,SSE,158,0.0,0.0,63,0.00,,---,0.00,VWS V14.01,2013-03-04 15:44:00,
2013-03-04 07:49:00,23.6,12.9,31.02,South,178,0.0,0.0,63,0.00,,---,0.00,VWS V14.01,2013-03-04 15:49:00,
2013-03-04 07:54:00,23.6,13.2,31.02,South,177,0.0,0.0,64,0.00,,---,0.00,VWS V14.01,2013-03-04 15:54:00,
2013-03-04 07:59:00,23.6,13.2,31.02,South,177,0.0,0.0,64,0.00,,---,0.00,VWS V14.01,2013-03-04 15:59:00,
2013-03-04 08:04:00,23.6,13.2,31.01,South,183,0.0,0.0,64,0.00,,---,0.00,VWS V14.01,2013-03-04 16:04:00,
2013-03-04 08:09:00,23.9,13.9,31.01,South,183,0.0,0.0,65,0.00,,---,0.00,VWS V14.01,2013-03-04 16:09:00,
2013-03-04 08:14:00,24.1,13.7,31.01,South,186,0.0,0.0,64,0.00,,---,0.00,VWS V14.01,2013-03-04 16:14:00,
2013-03-04 08:19:00,24.2,13.8,31.01,South,180,0.0,0.0,64,0.00,,---,0.00,VWS V14.01,2013-03-04 16:19:00,
2013-03-04 08:25:00,24.8,13.6,31.01,South,178,0.0,0.0,62,0.00,,---,0.00,VWS V14.01,2013-03-04 16:25:00,
2013-03-04 08:30:00,26.0,14.0,31.02,SSE,166,0.0,0.0,60,0.00,,---,0.00,VWS V14.01,2013-03-04 16:30:00,
2013-03-04 08:35:00,26.9,14.5,31.02,SSE,162,0.0,0.0,59,0.00,,---,0.00,VWS V14.01,2013-03-04 16:35:00,
2013-03-04 08:40:00,27.6,14.4,31.03,SSE,162,0.0,0.0,57,0.00,,---,0.00,VWS V14.01,2013-03-04 16:40:00,
2013-03-04 08:45:00,27.9,14.2,31.03,SSE,157,0.0,0.0,56,0.00,,---,0.00,VWS V14.01,2013-03-04 16:45:00,
2013-03-04 08:50:00,28.7,13.8,31.03,SSE,148,0.0,0.0,53,0.00,,---,0.00,VWS V14.01,2013-03-04 16:50:00,
2013-03-04 08:55:00,28.7,14.6,31.03,SSE,161,0.0,0.0,55,0.00,,---,0.00,VWS V14.01,2013-03-04 16:55:00,
2013-03-04 09:00:00,29.4,14.4,31.03,SSE,159,0.0,0.0,53,0.00,,---,0.00,VWS V14.01,2013-03-04 17:00:00,
2013-03-04 09:05:00,29.7,13.4,31.03,SSE,148,0.0,0.0,50,0.00,,---,0.00,VWS V14.01,2013-03-04 17:05:00,
2013-03-04 09:10:00,30.4,14.4,31.03,South,172,0.0,0.0,51,0.00,,---,0.00,VWS V14.01,2013-03-04 17:10:00,
2013-03-04 09:16:00,31.2,14.3,31.04,SSE,156,0.0,0.0,49,0.00,,---,0.00,VWS V14.01,2013-03-04 17:16:00,
2013-03-04 09:21:00,31.8,14.8,31.04,SE,134,0.0,0.0,49,0.00,,---,0.00,VWS V14.01,2013-03-04 17:21:00,
2013-03-04 09:26:00,32.1,14.6,31.04,SSE,161,0.0,0.0,48,0.00,,---,0.00,VWS V14.01,2013-03-04 17:26:00,
2013-03-04 09:31:00,32.2,14.2,31.04,SE,140,0.0,0.0,47,0.00,,---,0.00,VWS V14.01,2013-03-04 17:31:00,
2013-03-04 09:36:00,32.5,14.5,31.05,SSE,163,0.0,0.0,47,0.00,,---,0.00,VWS V14.01,2013-03-04 17:36:00,
2013-03-04 09:41:00,32.5,14.5,31.05,South,187,0.0,0.0,47,0.00,,---,0.00,VWS V14.01,2013-03-04 17:41:00,
2013-03-04 09:46:00,32.4,14.4,31.04,South,184,0.0,0.0,47,0.00,,---,0.00,VWS V14.01,2013-03-04 17:46:00,
2013-03-04 09:51:00,32.5,13.0,31.04,South,190,0.0,0.0,44,0.00,,---,0.00,VWS V14.01,2013-03-04 17:51:00,
2013-03-04 09:56:00,32.9,13.9,31.05,South,191,0.0,0.0,45,0.00,,---,0.00,VWS V14.01,2013-03-04 17:56:00,
2013-03-04 10:01:00,33.2,13.7,31.05,SSW,200,0.0,0.0,44,0.00,,---,0.00,VWS V14.01,2013-03-04 18:01:00,
2013-03-04 10:06:00,33.5,13.4,31.05,SW,217,0.0,0.0,43,0.00,,---,0.00,VWS V14.01,2013-03-04 18:06:00,
2013-03-04 10:12:00,34.3,14.7,31.05,SSE,153,0.0,0.0,44,0.00,,---,0.00,VWS V14.01,2013-03-04 18:12:00,
2013-03-04 10:17:00,34.6,13.9,31.05,SSE,159,0.0,0.0,42,0.00,,---,0.00,VWS V14.01,2013-03-04 18:17:00,
2013-03-04 10:22:00,35.0,15.3,31.05,South,169,0.0,0.0,44,0.00,,---,0.00,VWS V14.01,2013-03-04 18:22:00,
2013-03-04 10:27:00,35.6,14.2,31.07,East,93,0.0,0.0,41,0.00,,---,0.00,VWS V14.01,2013-03-04 18:27:00,
2013-03-04 10:29:00,35.6,13.7,31.07,SSE,160,0.0,0.0,40,0.00,,---,0.00,VWS V14.01,2013-03-04 18:29:00,
2013-03-04 10:30:00,35.6,13.1,31.07,South,178,0.0,0.0,39,0.00,,---,0.00,VWS V14.01,2013-03-04 18:30:00,
2013-03-04 10:35:00,35.8,13.9,31.07,SSE,149,0.0,0.0,40,0.00,,---,0.00,VWS V14.01,2013-03-04 18:35:00,
2013-03-04 10:41:00,36.5,14.5,31.07,South,169,0.0,0.0,40,0.00,,---,0.00,VWS V14.01,2013-03-04 18:41:00,
2013-03-04 10:46:00,36.6,14.6,31.07,SE,146,0.0,0.0,40,0.00,,---,0.00,VWS V14.01,2013-03-04 18:46:00,
2013-03-04 10:51:00,36.9,13.7,31.07,SE,136,0.0,0.0,38,0.00,,---,0.00,VWS V14.01,2013-03-04 18:51:00,
2013-03-04 10:56:00,37.3,14.0,31.07,SSE,161,0.0,0.0,38,0.00,,---,0.00,VWS V14.01,2013-03-04 18:56:00,
2013-03-04 11:01:00,37.9,13.4,31.08,SE,130,0.0,0.0,36,0.00,,---,0.00,VWS V14.01,2013-03-04 19:01:00,
2013-03-04 11:06:00,38.3,14.3,31.08,SE,146,0.0,0.0,37,0.00,,---,0.00,VWS V14.01,2013-03-04 19:06:00,
2013-03-04 11:11:00,38.2,14.2,31.08,SSE,163,0.0,0.0,37,0.00,,---,0.00,VWS V14.01,2013-03-04 19:11:00,
2013-03-04 11:17:00,38.6,14.6,31.08,SSE,157,0.0,0.0,37,0.00,,---,0.00,VWS V14.01,2013-03-04 19:17:00,
2013-03-04 11:22:00,38.5,13.9,31.08,SSW,194,0.0,0.0,36,0.00,,---,0.00,VWS V14.01,2013-03-04 19:22:00,
2013-03-04 11:27:00,38.6,13.3,31.08,SE,142,0.0,0.0,35,0.00,,---,0.00,VWS V14.01,2013-03-04 19:27:00,
2013-03-04 11:32:00,39.2,13.9,31.08,South,173,0.0,0.0,35,0.00,,---,0.00,VWS V14.01,2013-03-04 19:32:00,
2013-03-04 11:37:00,39.5,12.8,31.09,South,187,0.0,0.0,33,0.00,,---,0.00,VWS V14.01,2013-03-04 19:37:00,
2013-03-04 11:42:00,39.6,12.9,31.09,South,171,0.0,0.0,33,0.00,,---,0.00,VWS V14.01,2013-03-04 19:42:00,
2013-03-04 11:47:00,40.1,14.0,31.09,SE,132,0.0,0.0,34,0.00,,---,0.00,VWS V14.01,2013-03-04 19:47:00,
2013-03-04 11:52:00,40.1,14.7,31.09,South,182,0.0,0.0,35,0.00,,---,0.00,VWS V14.01,2013-03-04 19:52:00,
2013-03-04 11:57:00,40.5,13.0,31.09,South,188,0.0,0.0,32,0.00,,---,0.00,VWS V14.01,2013-03-04 19:57:00,
2013-03-04 12:03:00,40.9,12.6,31.09,SE,136,0.0,0.0,31,0.00,,---,0.00,VWS V14.01,2013-03-04 20:03:00,
2013-03-04 12:08:00,40.9,12.6,31.09,SE,146,0.0,0.0,31,0.00,,---,0.00,VWS V14.01,2013-03-04 20:08:00,
2013-03-04 12:13:00,41.5,13.9,31.10,South,189,0.0,0.0,32,0.00,,---,0.00,VWS V14.01,2013-03-04 20:13:00,
2013-03-04 12:18:00,41.8,12.7,31.10,SSE,159,0.0,0.0,30,0.00,,---,0.00,VWS V14.01,2013-03-04 20:18:00,
2013-03-04 12:23:00,41.5,13.1,31.10,SSE,165,0.0,0.0,31,0.00,,---,0.00,VWS V14.01,2013-03-04 20:23:00,
2013-03-04 12:28:00,41.6,13.9,31.10,SE,140,0.0,0.0,32,0.00,,---,0.00,VWS V14.01,2013-03-04 20:28:00,
2013-03-04 12:34:00,41.2,15.6,31.10,SE,140,0.0,0.0,35,0.00,,---,0.00,VWS V14.01,2013-03-04 20:34:00,
2013-03-04 12:39:00,41.1,14.2,31.09,ESE,119,0.0,0.0,33,0.00,,---,0.00,VWS V14.01,2013-03-04 20:39:00,
2013-03-04 12:44:00,42.1,15.8,31.10,SE,135,0.0,0.0,34,0.00,,---,0.00,VWS V14.01,2013-03-04 20:44:00,
2013-03-04 12:49:00,41.9,13.5,31.10,SSE,148,0.0,0.0,31,0.00,,---,0.00,VWS V14.01,2013-03-04 20:49:00,
2013-03-04 12:54:00,42.2,13.8,31.10,SE,140,0.0,0.0,31,0.00,,---,0.00,VWS V14.01,2013-03-04 20:54:00,
2013-03-04 12:59:00,41.6,15.3,31.10,ESE,121,0.0,0.0,34,0.00,,---,0.00,VWS V14.01,2013-03-04 20:59:00,
2013-03-04 13:04:00,42.2,14.5,31.10,ESE,115,0.0,0.0,32,0.00,,---,0.00,VWS V14.01,2013-03-04 21:04:00,
2013-03-04 13:09:00,42.3,14.6,31.10,SE,127,0.0,0.0,32,0.00,,---,0.00,VWS V14.01,2013-03-04 21:09:00,
2013-03-04 13:14:00,43.1,13.8,31.10,SSE,155,0.0,0.0,30,0.00,,---,0.00,VWS V14.01,2013-03-04 21:14:00,
2013-03-04 13:19:00,43.1,14.5,31.10,South,182,0.0,0.0,31,0.00,,---,0.00,VWS V14.01,2013-03-04 21:19:00,
2013-03-04 13:24:00,42.9,15.1,31.10,East,89,0.0,0.0,32,0.00,,---,0.00,VWS V14.01,2013-03-04 21:24:00,
2013-03-04 13:29:00,42.2,13.0,31.10,NE,51,0.0,0.0,30,0.00,,---,0.00,VWS V14.01,2013-03-04 21:29:00,
2013-03-04 13:34:00,42.6,14.1,31.10,SSE,151,0.0,0.0,31,0.00,,---,0.00,VWS V14.01,2013-03-04 21:34:00,
2013-03-04 13:40:00,42.9,14.4,31.10,SE,129,0.0,0.0,31,0.00,,---,0.00,VWS V14.01,2013-03-04 21:40:00,
2013-03-04 13:45:00,43.2,14.6,31.10,ESE,104,0.0,0.0,31,0.00,,---,0.00,VWS V14.01,2013-03-04 21:45:00,
2013-03-04 13:50:00,43.2,13.9,31.10,East,90,0.0,0.0,30,0.00,,---,0.00,VWS V14.01,2013-03-04 21:50:00,
2013-03-04 13:55:00,43.3,13.2,31.10,East,98,0.0,0.0,29,0.00,,---,0.00,VWS V14.01,2013-03-04 21:55:00,
2013-03-04 14:00:00,43.2,13.1,31.10,ENE,69,0.0,0.0,29,0.00,,---,0.00,VWS V14.01,2013-03-04 22:00:00,
2013-03-04 14:05:00,43.5,14.1,31.10,East,98,0.0,0.0,30,0.00,,---,0.00,VWS V14.01,2013-03-04 22:05:00,
2013-03-04 14:10:00,43.5,12.6,31.10,ENE,68,0.0,0.0,28,0.00,,---,0.00,VWS V14.01,2013-03-04 22:10:00,
2013-03-04 14:15:00,43.3,13.2,31.10,NE,55,0.0,0.0,29,0.00,,---,0.00,VWS V14.01,2013-03-04 22:15:00,
2013-03-04 14:21:00,44.1,14.7,31.10,East,87,0.0,0.0,30,0.00,,---,0.00,VWS V14.01,2013-03-04 22:21:00,
2013-03-04 14:26:00,44.1,13.9,31.10,SE,130,0.0,0.0,29,0.00,,---,0.00,VWS V14.01,2013-03-04 22:26:00,
2013-03-04 14:31:00,44.2,13.2,31.10,ENE,72,0.0,0.0,28,0.00,,---,0.00,VWS V14.01,2013-03-04 22:31:00,
2013-03-04 14:36:00,44.2,13.2,31.10,ESE,109,0.0,0.0,28,0.00,,---,0.00,VWS V14.01,2013-03-04 22:36:00,
2013-03-04 14:41:00,44.3,13.3,31.10,ENE,74,0.0,0.0,28,0.00,,---,0.00,VWS V14.01,2013-03-04 22:41:00,
2013-03-04 14:47:00,44.3,12.4,31.10,ENE,78,0.0,0.0,27,0.00,,---,0.00,VWS V14.01,2013-03-04 22:47:00,
2013-03-04 14:52:00,44.5,12.6,31.10,ENE,59,0.0,0.0,27,0.00,,---,0.00,VWS V14.01,2013-03-04 22:52:00,
2013-03-04 14:57:00,44.6,13.5,31.11,NE,48,0.0,0.0,28,0.00,,---,0.00,VWS V14.01,2013-03-04 22:57:00,
2013-03-04 15:02:00,44.8,13.7,31.11,NE,49,0.0,0.0,28,0.00,,---,0.00,VWS V14.01,2013-03-04 23:02:00,
2013-03-04 15:07:00,44.9,13.8,31.11,NE,42,0.0,0.0,28,0.00,,---,0.00,VWS V14.01,2013-03-04 23:07:00,
2013-03-04 15:12:00,44.6,13.5,31.11,NNE,32,0.0,0.0,28,0.00,,---,0.00,VWS V14.01,2013-03-04 23:12:00,
2013-03-04 15:17:00,44.6,12.7,31.11,ENE,69,0.0,0.0,27,0.00,,---,0.00,VWS V14.01,2013-03-04 23:17:00,
2013-03-04 15:22:00,44.9,13.8,29.76,ENE,62,0.0,0.0,28,0.00,,---,0.00,VWS V14.01,2013-03-04 23:22:00,
2013-03-04 15:27:00,45.1,14.0,31.11,East,82,0.0,0.0,28,0.00,,---,0.00,VWS V14.01,2013-03-04 23:27:00,
2013-03-04 15:33:00,45.2,14.1,31.11,East,83,0.0,0.0,28,0.00,,---,0.00,VWS V14.01,2013-03-04 23:33:00,
2013-03-04 15:38:00,45.2,14.1,31.11,East,85,0.0,0.0,28,0.00,,---,0.00,VWS V14.01,2013-03-04 23:38:00,
2013-03-04 15:43:00,45.1,13.1,31.11,ENE,72,0.0,0.0,27,0.00,,---,0.00,VWS V14.01,2013-03-04 23:43:00,
2013-03-04 15:48:00,45.1,13.1,31.11,NE,36,0.0,0.0,27,0.00,,---,0.00,VWS V14.01,2013-03-04 23:48:00,
2013-03-04 15:53:00,44.9,13.8,31.11,NE,46,0.0,0.0,28,0.00,,---,0.00,VWS V14.01,2013-03-04 23:53:00,
2013-03-04 15:58:00,44.8,13.7,31.11,ENE,68,0.0,0.0,28,0.00,,---,0.00,VWS V14.01,2013-03-04 23:58:00,
2013-03-04 16:03:00,45.1,14.0,31.11,NE,48,0.0,0.0,28,0.00,,---,0.00,VWS V14.01,2013-03-05 00:03:00,
2013-03-04 16:08:00,44.9,13.8,31.10,NNE,14,0.0,0.0,28,0.00,,---,0.00,VWS V14.01,2013-03-05 00:08:00,
2013-03-04 16:14:00,44.5,15.0,31.10,NNW,331,0.0,0.0,30,0.00,,---,0.00,VWS V14.01,2013-03-05 00:14:00,
2013-03-04 16:19:00,44.2,15.5,31.10,North,355,0.0,0.0,31,0.00,,---,0.00,VWS V14.01,2013-03-05 00:19:00,
2013-03-04 16:24:00,43.9,15.2,31.10,NNW,342,0.0,0.0,31,0.00,,---,0.00,VWS V14.01,2013-03-05 00:24:00,
2013-03-04 16:29:00,43.8,16.6,31.10,NNW,346,0.0,0.0,33,0.00,,---,0.00,VWS V14.01,2013-03-05 00:29:00,
2013-03-04 16:34:00,43.5,16.3,31.10,NW,315,0.0,0.0,33,0.00,,---,0.00,VWS V14.01,2013-03-05 00:34:00,
2013-03-04 16:39:00,43.3,16.8,31.09,NW,326,0.0,0.0,34,0.00,,---,0.00,VWS V14.01,2013-03-05 00:39:00,
2013-03-04 16:44:00,42.8,17.1,31.09,NNW,339,0.0,0.0,35,0.00,,---,0.00,VWS V14.01,2013-03-05 00:44:00,
2013-03-04 16:50:00,42.5,16.8,31.09,NW,313,0.0,0.0,35,0.00,,---,0.00,VWS V14.01,2013-03-05 00:50:00,
2013-03-04 16:55:00,42.3,16.6,31.09,NNW,334,0.0,0.0,35,0.00,,---,0.00,VWS V14.01,2013-03-05 00:55:00,
2013-03-04 17:00:00,42.1,17.1,31.09,NW,322,0.0,0.0,36,0.00,,---,0.00,VWS V14.01,2013-03-05 01:00:00,
2013-03-04 17:05:00,41.8,17.5,31.09,NNW,329,0.0,0.0,37,0.00,,---,0.00,VWS V14.01,2013-03-05 01:05:00,
2013-03-04 17:10:00,41.6,17.3,31.09,NNW,340,0.0,0.0,37,0.00,,---,0.00,VWS V14.01,2013-03-05 01:10:00,
2013-03-04 17:15:00,41.5,17.2,31.09,NNW,327,0.0,0.0,37,0.00,,---,0.00,VWS V14.01,2013-03-05 01:15:00,
2013-03-04 17:20:00,41.2,17.5,31.08,NNW,329,0.0,0.0,38,0.00,,---,0.00,VWS V14.01,2013-03-05 01:20:00,
2013-03-04 17:25:00,40.9,17.3,31.08,NW,311,0.0,0.0,38,0.00,,---,0.00,VWS V14.01,2013-03-05 01:25:00,
2013-03-04 17:30:00,40.6,17.0,31.08,WNW,300,0.0,0.0,38,0.00,,---,0.00,VWS V14.01,2013-03-05 01:30:00,
2013-03-04 17:36:00,40.5,17.5,31.08,NW,321,0.0,0.0,39,0.00,,---,0.00,VWS V14.01,2013-03-05 01:36:00,
2013-03-04 17:41:00,40.1,17.1,31.08,NW,322,0.0,0.0,39,0.00,,---,0.00,VWS V14.01,2013-03-05 01:41:00,
2013-03-04 17:46:00,39.8,17.5,31.08,NW,321,0.0,0.0,40,0.00,,---,0.00,VWS V14.01,2013-03-05 01:46:00,
2013-03-04 17:51:00,39.5,17.2,31.08,NW,306,0.0,0.0,40,0.00,,---,0.00,VWS V14.01,2013-03-05 01:51:00,
2013-03-04 17:56:00,39.2,17.5,31.07,NW,318,0.0,0.0,41,0.00,,---,0.00,VWS V14.01,2013-03-05 01:56:00,
2013-03-04 18:01:00,38.8,17.1,31.07,NW,325,0.0,0.0,41,0.00,,---,0.00,VWS V14.01,2013-03-05 02:01:00,
2013-03-04 18:06:00,38.5,16.9,31.07,NNW,328,0.0,0.0,41,0.00,,---,0.00,VWS V14.01,2013-03-05 02:06:00,
2013-03-04 18:12:00,38.2,16.6,31.06,NW,317,0.0,0.0,41,0.00,,---,0.00,VWS V14.01,2013-03-05 02:12:00,
2013-03-04 18:17:00,38.0,16.4,31.06,NW,324,0.0,0.0,41,0.00,,---,0.00,VWS V14.01,2013-03-05 02:17:00,
2013-03-04 18:22:00,37.8,16.8,31.06,WNW,303,0.0,0.0,42,0.00,,---,0.00,VWS V14.01,2013-03-05 02:22:00,
2013-03-04 18:27:00,37.5,16.5,31.06,NW,315,0.0,0.0,42,0.00,,---,0.00,VWS V14.01,2013-03-05 02:27:00,
2013-03-04 18:32:00,37.2,16.2,31.06,NW,317,0.0,0.0,42,0.00,,---,0.00,VWS V14.01,2013-03-05 02:32:00,
2013-03-04 18:37:00,36.9,16.5,31.06,NW,323,0.0,0.0,43,0.00,,---,0.00,VWS V14.01,2013-03-05 02:37:00,
2013-03-04 18:42:00,36.6,16.2,31.06,NNW,333,0.0,0.0,43,0.00,,---,0.00,VWS V14.01,2013-03-05 02:42:00,
2013-03-04 18:47:00,36.5,16.1,31.06,NW,321,0.0,0.0,43,0.00,,---,0.00,VWS V14.01,2013-03-05 02:47:00,
2013-03-04 18:53:00,36.5,16.1,31.06,NNW,336,0.0,0.0,43,0.00,,---,0.00,VWS V14.01,2013-03-05 02:53:00,
2013-03-04 18:58:00,36.2,16.4,31.04,NW,317,0.0,0.0,44,0.00,,---,0.00,VWS V14.01,2013-03-05 02:58:00,
2013-03-04 19:03:00,36.2,15.9,31.04,NW,324,0.0,0.0,43,0.00,,---,0.00,VWS V14.01,2013-03-05 03:03:00,
2013-03-04 19:08:00,36.0,16.2,31.05,NNW,328,0.0,0.0,44,0.00,,---,0.00,VWS V14.01,2013-03-05 03:08:00,
2013-03-04 19:13:00,36.0,15.7,31.05,NW,322,0.0,0.0,43,0.00,,---,0.00,VWS V14.01,2013-03-05 03:13:00,
2013-03-04 19:18:00,36.0,15.7,31.05,NW,323,0.0,0.0,43,0.00,,---,0.00,VWS V14.01,2013-03-05 03:18:00,
2013-03-04 19:23:00,36.0,16.2,31.05,West,281,0.0,0.0,44,0.00,,---,0.00,VWS V14.01,2013-03-05 03:23:00,
2013-03-04 19:28:00,35.9,16.1,31.06,NW,307,0.0,0.0,44,0.00,,---,0.00,VWS V14.01,2013-03-05 03:28:00,
2013-03-04 19:34:00,35.9,16.1,31.06,NW,304,0.0,0.0,44,0.00,,---,0.00,VWS V14.01,2013-03-05 03:34:00,
2013-03-04 19:39:00,35.8,16.0,31.06,NW,317,0.0,0.0,44,0.00,,---,0.00,VWS V14.01,2013-03-05 03:39:00,
2013-03-04 19:44:00,35.8,16.0,31.06,NW,307,0.0,0.0,44,0.00,,---,0.00,VWS V14.01,2013-03-05 03:44:00,
2013-03-04 19:49:00,35.6,15.9,31.06,NW,305,0.0,0.0,44,0.00,,---,0.00,VWS V14.01,2013-03-05 03:49:00,
2013-03-04 19:54:00,35.6,15.9,31.06,NW,305,0.0,0.0,44,0.00,,---,0.00,VWS V14.01,2013-03-05 03:54:00,
2013-03-04 19:59:00,35.5,15.8,31.05,WNW,302,0.0,0.0,44,0.00,,---,0.00,VWS V14.01,2013-03-05 03:59:00,
2013-03-04 20:04:00,35.3,15.6,31.04,NW,307,0.0,0.0,44,0.00,,---,0.00,VWS V14.01,2013-03-05 04:04:00,
2013-03-04 20:09:00,35.3,15.6,31.08,NW,313,0.0,0.0,44,0.00,,---,0.00,VWS V14.01,2013-03-05 04:09:00,
2013-03-04 20:14:00,35.3,15.6,31.08,NW,304,0.0,0.0,44,0.00,,---,0.00,VWS V14.01,2013-03-05 04:14:00,
2013-03-04 20:19:00,35.3,15.6,31.08,WNW,302,0.0,0.0,44,0.00,,---,0.00,VWS V14.01,2013-03-05 04:19:00,
2013-03-04 20:25:00,35.3,15.6,31.08,WNW,301,0.0,0.0,44,0.00,,---,0.00,VWS V14.01,2013-03-05 04:25:00,
2013-03-04 20:30:00,35.2,15.5,31.08,NW,306,0.0,0.0,44,0.00,,---,0.00,VWS V14.01,2013-03-05 04:30:00,
2013-03-04 20:35:00,35.2,15.5,31.08,NW,313,0.0,0.0,44,0.00,,---,0.00,VWS V14.01,2013-03-05 04:35:00,
2013-03-04 20:40:00,35.3,15.6,31.08,WNW,298,0.0,0.0,44,0.00,,---,0.00,VWS V14.01,2013-03-05 04:40:00,
2013-03-04 20:45:00,35.2,15.5,31.08,WNW,284,0.0,0.0,44,0.00,,---,0.00,VWS V14.01,2013-03-05 04:45:00,
2013-03-04 20:50:00,34.9,15.7,31.08,West,281,0.0,0.0,45,0.00,,---,0.00,VWS V14.01,2013-03-05 04:50:00,
2013-03-04 20:55:00,34.7,15.6,31.08,West,278,0.0,0.0,45,0.00,,---,0.00,VWS V14.01,2013-03-05 04:55:00,
2013-03-04 21:00:00,34.7,15.6,31.08,West,281,0.0,0.0,45,0.00,,---,0.00,VWS V14.01,2013-03-05 05:00:00,
2013-03-04 21:01:00,34.7,15.6,31.08,West,281,0.0,0.0,45,0.00,,---,0.00,VWS V14.01,2013-03-05 05:01:00,
2013-03-04 21:06:00,34.6,15.5,31.10,WNW,296,0.0,0.0,45,0.00,,---,0.00,VWS V14.01,2013-03-05 05:06:00,
2013-03-04 21:11:00,34.4,15.3,31.10,NW,309,0.0,0.0,45,0.00,,---,0.00,VWS V14.01,2013-03-05 05:11:00,
2013-03-04 21:16:00,34.6,15.5,31.10,NW,315,0.0,0.0,45,0.00,,---,0.00,VWS V14.01,2013-03-05 05:16:00,
2013-03-04 21:21:00,34.6,15.5,31.10,NW,306,0.0,0.0,45,0.00,,---,0.00,VWS V14.01,2013-03-05 05:21:00,
2013-03-04 21:26:00,34.7,15.6,31.10,WNW,295,0.0,0.0,45,0.00,,---,0.00,VWS V14.01,2013-03-05 05:26:00,
2013-03-04 21:31:00,34.6,15.5,31.10,NW,311,0.0,0.0,45,0.00,,---,0.00,VWS V14.01,2013-03-05 05:31:00,
2013-03-04 21:36:00,34.4,15.3,31.10,NW,304,0.0,0.0,45,0.00,,---,0.00,VWS V14.01,2013-03-05 05:36:00,
2013-03-04 21:41:00,34.4,15.8,31.09,NW,309,0.0,0.0,46,0.00,,---,0.00,VWS V14.01,2013-03-05 05:41:00,
2013-03-04 21:47:00,34.1,15.5,31.09,NW,308,0.0,0.0,46,0.00,,---,0.00,VWS V14.01,2013-03-05 05:47:00,
2013-03-04 21:52:00,34.0,15.4,31.09,NW,311,0.0,0.0,46,0.00,,---,0.00,VWS V14.01,2013-03-05 05:52:00,
2013-03-04 21:57:00,33.7,15.6,31.09,NW,309,0.0,0.0,47,0.00,,---,0.00,VWS V14.01,2013-03-05 05:57:00,
2013-03-04 22:02:00,33.5,15.4,31.09,WNW,296,0.0,0.0,47,0.00,,---,0.00,VWS V14.01,2013-03-05 06:02:00,
2013-03-04 22:07:00,33.2,15.2,31.11,WNW,302,0.0,0.0,47,0.00,,---,0.00,VWS V14.01,2013-03-05 06:07:00,
2013-03-04 22:12:00,33.1,15.6,31.11,WNW,300,0.0,0.0,48,0.00,,---,0.00,VWS V14.01,2013-03-05 06:12:00,
2013-03-04 22:17:00,33.1,16.0,31.11,NW,322,0.0,0.0,49,0.00,,---,0.00,VWS V14.01,2013-03-05 06:17:00,
2013-03-04 22:22:00,32.9,15.9,31.11,NW,312,0.0,0.0,49,0.00,,---,0.00,VWS V14.01,2013-03-05 06:22:00,
2013-03-04 22:27:00,32.8,16.2,31.11,NW,312,0.0,0.0,50,0.00,,---,0.00,VWS V14.01,2013-03-05 06:27:00,
2013-03-04 22:32:00,32.8,16.2,31.11,NW,304,0.0,0.0,50,0.00,,---,0.00,VWS V14.01,2013-03-05 06:32:00,
2013-03-04 22:37:00,32.7,16.1,31.11,WNW,302,0.0,0.0,50,0.00,,---,0.00,VWS V14.01,2013-03-05 06:37:00,
2013-03-04 22:42:00,32.7,16.1,31.11,WNW,298,0.0,0.0,50,0.00,,---,0.00,VWS V14.01,2013-03-05 06:42:00,
2013-03-04 22:47:00,32.7,16.1,31.11,NW,311,0.0,0.0,50,0.00,,---,0.00,VWS V14.01,2013-03-05 06:47:00,
2013-03-04 22:52:00,32.7,16.1,31.11,NW,313,0.0,0.0,50,0.00,,---,0.00,VWS V14.01,2013-03-05 06:52:00,
2013-03-04 22:57:00,32.7,16.1,31.11,NW,304,0.0,0.0,50,0.00,,---,0.00,VWS V14.01,2013-03-05 06:57:00,
2013-03-04 23:03:00,32.7,16.1,31.11,NW,304,0.0,0.0,50,0.00,,---,0.00,VWS V14.01,2013-03-05 07:03:00,
2013-03-04 23:08:00,32.5,15.9,31.13,NW,304,0.0,0.0,50,0.00,,---,0.00,VWS V14.01,2013-03-05 07:08:00,
2013-03-04 23:13:00,32.4,15.9,31.13,WNW,302,0.0,0.0,50,0.00,,---,0.00,VWS V14.01,2013-03-05 07:13:00,
2013-03-04 23:18:00,32.4,16.3,31.12,WNW,302,0.0,0.0,51,0.00,,---,0.00,VWS V14.01,2013-03-05 07:18:00,
2013-03-04 23:23:00,32.2,16.6,31.12,WNW,302,0.0,0.0,52,0.00,,---,0.00,VWS V14.01,2013-03-05 07:23:00,
2013-03-04 23:28:00,32.1,16.5,31.12,WNW,301,0.0,0.0,52,0.00,,---,0.00,VWS V14.01,2013-03-05 07:28:00,
2013-03-04 23:33:00,31.9,16.3,31.12,WNW,301,0.0,0.0,52,0.00,,---,0.00,VWS V14.01,2013-03-05 07:33:00,
2013-03-04 23:38:00,31.8,16.2,31.12,WNW,293,0.0,0.0,52,0.00,,---,0.00,VWS V14.01,2013-03-05 07:38:00,
2013-03-04 23:43:00,31.6,16.0,31.12,WNW,292,0.0,0.0,52,0.00,,---,0.00,VWS V14.01,2013-03-05 07:43:00,
2013-03-04 23:48:00,31.6,16.5,31.12,WNW,292,0.0,0.0,53,0.00,,---,0.00,VWS V14.01,2013-03-05 07:48:00,
2013-03-04 23:53:00,31.3,16.2,31.12,WNW,292,0.0,0.0,53,0.00,,---,0.00,VWS V14.01,2013-03-05 07:53:00,
2013-03-04 23:58:00,31.2,16.5,31.12,WNW,292,0.0,0.0,54,0.00,,---,0.00,VWS V14.01,2013-03-05 07:58:00,